Regional Weather Roundup
Issued by NWS Wakefield, VA

Home | Current Version | Previous Version | Text Only | Print | Product List | Glossary On
Versions: 1 2 3 4 5 6 7 8 9 10 11 12 13 14 15 16 17 18 19 20 21 22 23 24 25 26 27 28 29 30 31 32 33 34 35 36 37 38 39 40 41 42 43 44 45 46 47 48 49 50
000
ASUS41 KAKQ 220310
RWRAKQ

REGIONAL WEATHER ROUNDUP
NATIONAL WEATHER SERVICE WAKEFIELD VA
1100 PM EDT SUN SEP 21 2014

Note: "fair" indicates few or no clouds below 12,000 feet with no
significant weather and/or obstructions to visibility. * = Denotes
station may not report precipitation (e.g., rain,snow,etc.),
thunder or fog.

VAZ042-051-052>054-056-220400-
NORTHERN VIRGINIA

CITY           SKY/WX    TMP DP  RH WIND       PRES   REMARKS
WASH NATIONAL  CLOUDY    80  58  46 NW13G18   29.71R
DULLES         CLOUDY    74  58  57 W13       29.74R
FORT BELVOIR   CLOUDY    75  61  61 NW12      29.73R
QUANTICO       MOCLDY    73  63  70 NW6       29.74R
FREDERICKSBRG* MOCLDY    76  65  67 W6        29.73R
STAFFORD*      PTCLDY    69  69 100 CALM      29.77R
WARRENTON      CLOUDY    68  68 100 W3        29.74R
CULPEPER*      MOCLDY    75  63  64 NW3       29.75R
MANASSAS*      CLOUDY    75  55  50 NW18G29   29.74R
LEESBURG*      MOCLDY    75  61  60 NW14G21   29.75R
WINCHESTER     PTCLDY    70  50  49 W5        29.79R
FRONT ROYAL*   PTCLDY    72  48  43 W9        29.80R
LURAY*         PTCLDY    73  50  43 NW6       29.81R
$$

VAZ048-049-060>072-079>083-220400-
CENTRAL AND SOUTH CENTRAL VIRGINIA...AND NORTH CENTRAL NORTH CAROLINA

CITY           SKY/WX    TMP DP  RH WIND       PRES   REMARKS
RICHMOND       PTCLDY    79  65  62 W14       29.75R
CHESTERFIELD*  CLEAR    N/A N/A N/A W9        29.78R
PETERSBURG*    PTCLDY    71  65  80 SW5       29.79R
HANOVER        CLEAR     77  66  68 SW12      29.76R
TAPPAHANNOCK*  CLEAR     73  63  70 SW3       29.73R
CHARLOTTSVILLE PTCLDY    75  57  53 W9G17     29.77R
ORANGE*        MOCLDY    75  59  57 W6        29.77R
LOUISA*        MOCLDY    73  64  73 W6        29.75R
FARMVILLE*     MOCLDY    75  63  64 SW8       29.78R
CREWE*         CLEAR     77  61  57 W7        29.79R
FORT PICKETT*  CLEAR     72  66  80 SW9       29.80R
LUNENBURG*     CLEAR     72  67  83 W5        29.81R
SOUTH HILL*    CLEAR     72  66  83 SW3       29.87R
LAWRENCEVILLE* CLEAR     69  66  90 SW3       29.81R
ROANOKE RAPIDS PTCLDY    72  64  78 SW7       29.82R
RALEIGH        LGT RAIN  72  66  81 W9G20     29.87R
$$

VAZ088>098-220400-
SOUTHEAST VIRGINIA

CITY           SKY/WX    TMP DP  RH WIND       PRES   REMARKS
NORFOLK        CLEAR     75  64  68 SW13      29.76S
VIRGINIA BEACH CLEAR     74  64  71 SW12      29.76F
NORFOLK NAVAL  PTCLDY    77  65  66 SW12G18   29.78S
WEST POINT*    CLEAR     78  65  65 SW10      29.75R
NEWPORT NEWS   PTCLDY    79  66  64 SW13      29.76R
LANGLEY AFB    CLEAR     77  67  71 W14       29.75S
FORT EUSTIS    PTCLDY    76  66  70 SW7       29.75R
WILLIAMSBURG*  PTCLDY    79  68  69 W7        29.77R
HR EXEC AP*    CLEAR     72  64  78 SW8       29.80R
FRANKLIN*      CLEAR     73  64  73 SW8       29.79S
WAKEFIELD      CLEAR     75  66  73 SW6       29.78R
$$

VAZ020-022-025-037-045-220400-
WEST CENTRAL AND SOUTHWEST VIRGINIA

CITY           SKY/WX    TMP DP  RH WIND       PRES   REMARKS
STAUNTON*      PTCLDY    69  53  57 W7        29.85R
HOT SPRINGS VA CLEAR     56  32  40 W15G30    29.96R
LYNCHBURG      CLOUDY    71  63  75 SW6       29.85R
DANVILLE       PTCLDY    72  64  76 W6        29.85R
SOUTH BOSTON*  NOT AVBL
MARTINSVILLE   CLOUDY    68  67  98 CALM      29.91R
ROANOKE        MOCLDY    69  57  65 NW7       29.90R
BLACKSBURG     CLOUDY    66  57  72 NW6G28    29.97R
DUBLIN*        CLOUDY    69  57  65 NW15G21   29.96R
MARION*        MOCLDY    66  53  61 W10G16    30.02R
HILLSVILLE*    CLOUDY    64  56  73 NW12      29.98R
RICHLANDS*     PTCLDY    65  55  71 NW6       30.03R
WISE*          CLEAR     61  45  55 NW6       30.05S
ABINGDON*      PTCLDY    67  54  63 N6G20     30.01R
$$

MDZ021>025-VAZ099-100-220400-
SOUTHERN MARYLAND AND THE DELMARVA PENINSULA

CITY           SKY/WX    TMP DP  RH WIND       PRES   REMARKS
PATUXENT RIVER PTCLDY    76  65  68 SW13      29.70R
BAY BRIDGE APT   N/A     72  68  88 SW3       29.69R
LEONARDTOWN    CLEAR     75  63  64 SW8       29.72R
DOVER          HVY RAIN  71  65  79 SW10      29.66R
GEORGETOWN     MOCLDY    71  63  75 S13       29.69F
EASTON         PTCLDY    76  67  75 W8        29.73
CAMBRIDGE      PTCLDY    77  68  73 S3        29.68S
SALISBURY      PTCLDY    73  67  81 SW12      29.70S
OCEAN CITY     CLEAR     73  64  73 SW10      29.70F
WALLOPS ISLAND CLEAR     74  66  76 W8        29.72S
ACCOMACK*      PTCLDY    75  64  69 SW9G17    29.73S
$$

NCZ012>017-030>032-220400-
EASTERN NORTH CAROLINA

CITY           SKY/WX    TMP DP  RH WIND       PRES   REMARKS
ELIZABETH CITY CLEAR     73  66  78 SW10      29.80S
AHOSKIE*       CLEAR     72  65  79 S3        29.82R
EDENTON*       CLEAR     74  66  74 SW9       29.82S
CURRITUCK*     CLEAR     74  64  69 SW7       29.80S
KILL DEVIL HLS CLEAR     73  67  80 SW8       29.81S
MANTEO         CLEAR     73  67  83 SW12      29.82F
CAPE HATTERAS  CLEAR     74  69  85 W13G20    29.86S
TARBORO*       CLEAR     75  65  70 SW7       29.85R
GOLDSBORO      CLEAR     75  70  82 SW2       29.85R
WASHINGTON     CLEAR     73  65  75 SW7       29.85S
GREENVILLE     CLEAR     73  66  78 SW8       29.87R
NEW BERN       CLEAR     73  64  73 SW7       29.88S
WILMINGTON     CLEAR     76  69  79 SW9       29.91S
$$

VAZ048-220400-
ELSEWHERE

CITY           SKY/WX    TMP DP  RH WIND       PRES   REMARKS
HARRISBURG PA  PTCLDY    70  61  73 W9        29.70R
BALTIMORE      MOCLDY    74  62  66 W8        29.69R
ANNAPOLIS        N/A     72  66  81 NW3       29.69R
ANDREWS AFB    MOCLDY    77  60  55 NW13      29.71R
WILMINGTON DE  CLOUDY    71  63  75 NW6       29.69R
PHILADELPHIA   MOCLDY    73  63  70 W6        29.69R
WILDWOOD NJ*   MOCLDY    72  63  73 S8        29.69F
ATLANTIC CITY  CLEAR     69  66  90 SW8       29.67S
HENDERSON NC   PTCLDY    73  63  71 SW8       29.84R
GREENSBORO     PTCLDY    69  67  93 W6        29.87S
ROCKY MOUNT    CLEAR     73  65  75 SW7       29.85R
FAYETTEVILLE   CLEAR     75  65  70 S9        29.88R
CHARLOTTE      CLOUDY    74  64  71 W3        29.91R
$$

VAZ100-220400-
MARINE

STATION/POSITION TIME  TEMP    WIND        PRES    WAVE   SWELL
                       AIR SEA DIR/SP/G            HT/PER HT/PER
                 (UTC) (F)     (DEG/KT/KT) (MB)    (FT/S) (FT/S)
44066 TX TWR #4  0300   69 70  280/ 12/ 14 1003.8R   5/ 8   3/ 8
CAPE MAY NJ      0300   72 75  190/  5/  7 1004.6S
LEWES DE         0300   72 72  220/  7/ 12 1004.8F
15NM E FENWICK I 0300   73 72              1005.6R   4/ 9
OCEAN-CITY-INLET 0300   73 72  230/ 10/ 12 1005.4F
WACHAPREAGUE VA  0300   74 75  240/  5/  7 1006.7S
THOMAS POINT MD  0300   74 74  250/  4/  5 1006.4R
GOOSES REEF MD   0300   77     250/ 14/ 17 1005.8R
COVE POINT MD    0300   77     250/ 13/ 18 1005.5R
SOLOMONS ISLAND  0300      76                N/A
BISHOPS HEAD MD  0300   76 74  220/ 17/ 19 1004.8S
PINEY POINT MD   0300          260/ 10/ 13   N/A
POTOMAC MD       0300   76     240/ 14/ 17 1005.0R
CAMBRIDGE MD     0300   74 74  190/  6/  9 1004.9R
LEWISETTA VA     0300   76 75  260/  9/ 11 1005.6R
RAPPAHANNOCK LGT 0300          200/ 17/ 19 1007.0S
STINGRAY PT      0300   77     230/ 16/ 17   N/A
YORK RVR RNG VA  0300   78     240/ 17/ 22 1006.6R
YORKTOWN VA      0300   77 76  230/ 11/ 14 1007.0S
JAMESTOWN VA     0300   76     240/ 12/ 16   N/A
DOMINION TERM VA 0300   77     240/ 14/ 17 1007.8S
KIPTOPEKE VA     0300      78  220/ 13/ 16   N/A
CHES BAY BRIDGE  0300   77 75  210/ 19/ 21 1007.1S
CAPE HENRY VA    0300   76     220/ 12/ 16 1006.7S
CHESAPEAKE LGHT  0200   76     220/ 20/ 22 1008.1S
WILLOUBY STN VA  0300   76     240/ 17/ 18 1006.4R
S CRANEY ISL VA  0300          210/  9/ 14 1007.6F
CAPE HENRY BUOY  0300      75                N/A     4/ 9   2/11
1ST LANDING BUOY 0300   77     230/ 16/ 19 1007.4F
CAPE CHARLES BUO 0300      74                N/A     3/ 9   3/ 9
OFFSHORE WE BUOY 0300      74                N/A     4/ 9   3/ 9
64NM E OF VA BCH 0300   76 77  230/ 17/ 21 1007.9S   5/ 8   3/ 8
DUCK PIER NC     0300   76 74  220/ 13/ 19 1008.6S
44100 DUCK FRF   0300      74                N/A     4/10   2/11
44056 DUCK FRF   0300                        N/A     3/ 9   2/11
OREGON INLET NC  0300   76 76  210/ 14/ 16 1009.9S
DIAMOND SHLS NC  0300   80     240/ 21/ 25 1010.8R   6/ 9   5/ 9
CAPE LOOKOUT NC  0200   79     230/ 11/ 15 1012.0R
$$



USA.gov is the U.S. government's official web portal to all federal, state and local government web resources and services.